Weather History for Bennettsville, SC

Change the Weather History Date:

Friday, November 23, 2012

  Actual Average (KFLO) Record (KFLO)
Temperature  
Mean Temperature 50 °F 53 °F  
Max Temperature 69 °F 65 °F 80 °F (1979)
Min Temperature 32 °F 42 °F 24 °F (1976)
Degree Days  
Heating Degree Days 14 12  
Month to date heating degree days 212  
Since 1 July heating degree days 329  
Cooling Degree Days 0 0  
Month to date cooling degree days 16  
Year to date cooling degree days 2058  
Moisture  
Dew Point 37 °F    
Average Humidity 69    
Maximum Humidity 100    
Minimum Humidity 31    
Precipitation  
Precipitation 0.00 in 0.09 in 1.34 in (1960)
Month to date precipitation 2.03  
Year to date precipitation 39.26  
Sea Level Pressure  
Sea Level Pressure 30.05 in    
Wind  
Wind Speed 2 mph (SSW)    
Max Wind Speed 13 mph    
Max Gust Speed -    
Visibility 10 miles    
Events      
T = Trace of Precipitation, MM = Missing Value Source: NWS Daily Summary

Daily Weather History Graph

Daily Weather History Graph

Search for Another Location

Airport:

Trip Planner

Search our weather history database for the weather conditions in past years. The results will help you decide how hot, cold, wet, or windy it might be!

Date:

Astronomy

Nov. 23, 2012 Rise Set
Actual Time 7:00 AM EST 5:09 PM EST
Civil Twilight 6:33 AM EST 5:37 PM EST
Nautical Twilight 6:02 AM EST 6:08 PM EST
Astronomical Twilight 5:32 AM EST 6:38 PM EST
Moon 2:15 PM EST (11/23) 2:27 AM EST (11/23)
Length of Visible Light 11h 03m
Length of Day
10h 09m
Waxing Gibbous, 79% of the Moon is Illuminated
Nov 23
Waxing Gibbous
Nov 28
Full
Dec 6
Last Quarter
Dec 13
New
Dec 20
First Quarter

Hourly Weather History & Observations

Time (EST) Temp. Windchill Dew Point Humidity Pressure Visibility Wind Dir Wind Speed Gust Speed Precip Events Conditions
12:15 AM 33.8 °F - 33.8 °F 100% 30.18 in 10.0 mi Calm Calm - N/A   Clear
12:35 AM 33.8 °F - 33.8 °F 100% 30.17 in 10.0 mi Calm Calm - N/A   Clear
12:55 AM 32.0 °F - 32.0 °F 100% 30.17 in 10.0 mi Calm Calm - N/A   Clear
1:15 AM 32.0 °F - 32.0 °F 100% 30.17 in 10.0 mi Calm Calm - N/A   Clear
1:35 AM 33.8 °F - 33.8 °F 100% 30.16 in 10.0 mi Calm Calm - N/A   Clear
1:55 AM 33.8 °F - 33.8 °F 100% 30.16 in 10.0 mi Calm Calm - N/A   Clear
2:15 AM 32.0 °F - 32.0 °F 100% 30.16 in 10.0 mi Calm Calm - N/A   Clear
2:35 AM 32.0 °F - 32.0 °F 100% 30.16 in 7.0 mi Calm Calm - N/A   Clear
2:55 AM 32.0 °F - 32.0 °F 100% 30.16 in 7.0 mi Calm Calm - N/A   Clear
3:15 AM 32.0 °F - 32.0 °F 100% 30.16 in 5.0 mi Calm Calm - N/A   Clear
3:35 AM 32.0 °F - 32.0 °F 100% 30.16 in 10.0 mi Calm Calm - N/A   Clear
3:55 AM 32.0 °F 28.7 °F 32.0 °F 100% 30.16 in 7.0 mi West 3.5 mph - N/A   Clear
4:15 AM 32.0 °F - 32.0 °F 100% 30.16 in 10.0 mi Calm Calm - N/A   Clear
4:35 AM 32.0 °F - 32.0 °F 100% 30.16 in 7.0 mi Calm Calm - N/A   Clear
4:55 AM 32.0 °F - 32.0 °F 100% 30.15 in 7.0 mi Calm Calm - N/A   Clear
5:15 AM 32.0 °F - 32.0 °F 100% 30.16 in 7.0 mi Calm Calm - N/A   Clear
5:35 AM 32.0 °F - 32.0 °F 100% 30.16 in 10.0 mi Calm Calm - N/A   Clear
5:55 AM 32.0 °F - 32.0 °F 100% 30.16 in 10.0 mi Calm Calm - N/A   Clear
6:15 AM 32.0 °F - 32.0 °F 100% 30.15 in 10.0 mi Calm Calm - N/A   Clear
6:35 AM 32.0 °F - 32.0 °F 100% 30.16 in 7.0 mi Calm Calm - N/A   Clear
7:15 AM 32.0 °F - 32.0 °F 100% 30.16 in 7.0 mi Calm Calm - N/A   Clear
7:35 AM 32.0 °F - 32.0 °F 100% 30.16 in 7.0 mi Calm Calm - N/A   Clear
7:55 AM 33.8 °F - 33.8 °F 100% 30.16 in 10.0 mi Calm Calm - N/A   Clear
8:15 AM 35.6 °F - 35.6 °F 100% 30.15 in 10.0 mi Calm Calm - N/A   Clear
8:35 AM 37.4 °F - 35.6 °F 93% 30.15 in 10.0 mi Calm Calm - N/A   Clear
8:55 AM 41.0 °F - 37.4 °F 87% 30.15 in 10.0 mi Calm Calm - N/A   Clear
9:15 AM 44.6 °F - 37.4 °F 76% 30.15 in 10.0 mi Calm Calm - N/A   Clear
9:35 AM 46.4 °F - 37.4 °F 71% 30.14 in 10.0 mi Calm Calm - N/A   Clear
9:55 AM 51.8 °F - 35.6 °F 54% 30.13 in 10.0 mi South 5.8 mph - N/A   Clear
10:15 AM 55.4 °F - 33.8 °F 44% 30.13 in 10.0 mi South 5.8 mph - N/A   Clear
10:35 AM 59.0 °F - 32.0 °F 36% 30.12 in 10.0 mi SSW 6.9 mph - N/A   Clear
10:55 AM 59.0 °F - 32.0 °F 36% 30.12 in 10.0 mi SSW 6.9 mph - N/A   Clear
11:15 AM 60.8 °F - 33.8 °F 36% 30.10 in 10.0 mi South 6.9 mph - N/A   Clear
11:35 AM 62.6 °F - 33.8 °F 34% 30.08 in 10.0 mi South 8.1 mph - N/A   Clear
11:55 AM 64.4 °F - 33.8 °F 32% 30.06 in 10.0 mi South 8.1 mph - N/A   Clear
12:15 PM 64.4 °F - 33.8 °F 32% 30.04 in 10.0 mi SSE 8.1 mph - N/A   Clear
12:35 PM 64.4 °F - 35.6 °F 34% 30.03 in 10.0 mi South 9.2 mph - N/A   Clear
12:55 PM 66.2 °F - 35.6 °F 32% 30.02 in 10.0 mi SSW 10.4 mph - N/A   Clear
1:15 PM 68.0 °F - 37.4 °F 33% 30.01 in 10.0 mi SW 12.7 mph - N/A   Clear
1:35 PM 68.0 °F - 37.4 °F 33% 30.00 in 10.0 mi SSW 9.2 mph - N/A   Clear
1:55 PM 66.2 °F - 37.4 °F 35% 29.99 in 10.0 mi SSW 9.2 mph - N/A   Clear
2:15 PM 69.8 °F - 37.4 °F 31% 29.98 in 10.0 mi SW 9.2 mph - N/A   Clear
2:35 PM 69.8 °F - 37.4 °F 31% 29.96 in 10.0 mi SSW 9.2 mph - N/A   Clear
2:55 PM 69.8 °F - 39.2 °F 33% 29.96 in 10.0 mi SSW 11.5 mph - N/A   Clear
3:15 PM 69.8 °F - 39.2 °F 33% 29.94 in 10.0 mi SSW 9.2 mph - N/A   Clear
3:35 PM 69.8 °F - 41.0 °F 35% 29.93 in 10.0 mi SSW 9.2 mph - N/A   Clear
3:55 PM 69.8 °F - 41.0 °F 35% 29.93 in 10.0 mi SSW 9.2 mph - N/A   Clear
4:15 PM 68.0 °F - 41.0 °F 37% 29.93 in 10.0 mi SW 8.1 mph - N/A   Clear
4:35 PM 68.0 °F - 41.0 °F 37% 29.93 in 10.0 mi WSW 6.9 mph - N/A   Clear
4:55 PM 64.4 °F - 41.0 °F 42% 29.93 in 10.0 mi SW 4.6 mph - N/A   Clear
5:15 PM 64.4 °F - 41.0 °F 42% 29.93 in 10.0 mi WSW 4.6 mph - N/A   Clear
5:35 PM 62.6 °F - 42.8 °F 48% 29.93 in 10.0 mi South 3.5 mph - N/A   Clear
5:55 PM 60.8 °F - 42.8 °F 52% 29.93 in 10.0 mi SW 3.5 mph - N/A   Clear
6:15 PM 59.0 °F - 42.8 °F 55% 29.93 in 10.0 mi Calm Calm - N/A   Clear
6:35 PM 59.0 °F - 42.8 °F 55% 29.93 in 10.0 mi South 3.5 mph - N/A   Clear
6:55 PM 55.4 °F - 44.6 °F 67% 29.93 in 10.0 mi SSW 4.6 mph - N/A   Clear
7:35 PM 51.8 °F - 42.8 °F 71% 29.93 in 10.0 mi Calm Calm - N/A   Clear
7:55 PM 51.8 °F - 42.8 °F 71% 29.92 in 10.0 mi Calm Calm - N/A   Clear
8:15 PM 51.8 °F - 44.6 °F 76% 29.92 in 10.0 mi Calm Calm - N/A   Clear
8:35 PM 50.0 °F - 42.8 °F 76% 29.92 in 10.0 mi Calm Calm - N/A   Scattered Clouds
8:55 PM 50.0 °F - 44.6 °F 82% 29.91 in 10.0 mi Calm Calm - N/A   Mostly Cloudy
9:15 PM 51.8 °F - 42.8 °F 71% 29.91 in 10.0 mi SSE 3.5 mph - N/A   Scattered Clouds
9:35 PM 50.0 °F - 44.6 °F 82% 29.90 in 10.0 mi Calm Calm - N/A   Clear
9:55 PM 51.8 °F - 42.8 °F 71% 29.90 in 10.0 mi Calm Calm - N/A   Scattered Clouds
10:15 PM 50.0 °F - 42.8 °F 76% 29.90 in 10.0 mi WNW 3.5 mph - N/A   Mostly Cloudy
10:35 PM 51.8 °F - 42.8 °F 71% 29.91 in 10.0 mi West 4.6 mph - N/A   Clear
10:55 PM 53.6 °F - 42.8 °F 67% 29.91 in 10.0 mi West 3.5 mph - N/A   Clear
11:15 PM 51.8 °F - 42.8 °F 71% 29.91 in 10.0 mi Calm Calm - N/A   Clear
11:55 PM 50.0 °F - 42.8 °F 76% 29.91 in 10.0 mi WNW 3.5 mph - N/A   Clear